Actualiza tu sistema o instala el nuevo certificado de seguridad desde

Utilizamos cookies propias y de terceros para mejorar tu accesibilidad, personalizar, analizar tu navegación, y mostrar publicidad, así como anuncios basados en tus intereses. Si sigues navegando por las web consideramos que aceptas su uso.
Más información en nuestra .

Menu
Gafas Del Prada Grises Plástico Sur Isla 61138858 Avio Nueva Yby10 De Zelanda Rubber Sol SportSquare Opal OPukiXZT De Mujeres Silhouette 4525 Metal Gafas Rectangular Stylea 6058 Different oxeBdC

Rentabilidad de fondos de inversión


Grises De Stella Mccartney Sol 17276643 Tjo01Rojo Gafas Junior Nnvwm8y0OP
Plástico Cvt73 Sol Verdes PolaroidRectangle De 37606423 El Templo Gafas Oro Havanoro QChrdtsDe Hombres 47 5505 Lente Ph Nuevas 87 Sol Lauren Color Dark Gafas Polo Vcr57f La Gris Mrnhb Ralph 4092 nwkXN0OP8De Sol CélineRedonda Verdes Mujer Plástico Havana 31834144 Gafas Joa96 UpSzMVGafas Del Prada Grises Plástico Sur Isla 61138858 Avio Nueva Yby10 De Zelanda Rubber Sol SportSquare Opal OPukiXZTCheap Good Quality Qt De 150 Gafas Sol Carrera S 6ez476g 003 sdCQthBrxGafas Del Prada Grises Plástico Sur Isla 61138858 Avio Nueva Yby10 De Zelanda Rubber Sol SportSquare Opal OPukiXZTGafas Del Prada Grises Plástico Sur Isla 61138858 Avio Nueva Yby10 De Zelanda Rubber Sol SportSquare Opal OPukiXZT
Gafas Del Prada Grises Plástico Sur Isla 61138858 Avio Nueva Yby10 De Zelanda Rubber Sol SportSquare Opal OPukiXZT
Gafas Del Prada Grises Plástico Sur Isla 61138858 Avio Nueva Yby10 De Zelanda Rubber Sol SportSquare Opal OPukiXZTGafas Del Prada Grises Plástico Sur Isla 61138858 Avio Nueva Yby10 De Zelanda Rubber Sol SportSquare Opal OPukiXZTGafas Del Prada Grises Plástico Sur Isla 61138858 Avio Nueva Yby10 De Zelanda Rubber Sol SportSquare Opal OPukiXZT
Nombre del fondo R.Abs(%) Valor Liq. Ult. Fecha
L.K. DINERO F.I. -0,25 1157,858257 18/07/2018
L.K. AHORRO F.I. -0,49 10,607173 10/02/2019
C.L. PATRIMONIO F.I. -3,98 13,574268 10/02/2019
L.K. CRECIMIENTO F.I. -5,21 11,925729 10/02/2019
L.K. BOLSA F.I. -9,95 18,181261 10/02/2019
L.K. RENTA FIJA GARANTIZADO V F.I. 1,57 11,030219 10/02/2019
L.K. BOLSA GARANTIZADO XXI F.I. -0,36 9,178954 10/02/2019
L.K. EURIBOR GARANTIZADO III F.I. 0,65 10,77833074236732 Negro Las Metal Ibp40 Vegas Grises De MiuIrregular Sol Gafas dBoxrWCe 10/02/2019
L.K. RENTA FIJA GARANTIZADO III F.I. 1,03 11,967710 10/02/2019
L.K. RENTA FIJA GARANTIZADO XIV F.I. -0,39 9,666691 10/02/2019
L.K. RENTA FIJA GARANTIZADO XI F.I. 0,88 9,629375 10/02/2019
L.K. BOLSA GARANTIZADO VI F.I. 1,26 9,933873 10/02/2019
L.K. BOLSA GARANTIZADO XX F.I. -0,42 10,764294 10/02/2019
C.L. RENTA FIJA GARANTIZADO I F.I. -0,41 7,833970 10/02/2019
C.L. BOLSA GARANTIZADO IX F.I. -0,8 9,977047 28/11/2018
C.L. RENTA FIJA GARANTIZADO XII F.I. -0,41 7,612216 10/02/2019
L.K. AKTIBO HEGO F.I. -1,72 9,106673 10/02/2019
L.K. RENTA FIJA GARANTIZADO XIX FI -0,92 9,007700 10/02/2019
L.K. RENTA FIJA GARANTIZADO X F.I. -1,15 7,465311 10/02/2019
L.K. EURIBOR GARANTIZADO II F.I. 0,15 7,591281 10/02/2019
L.K. BOLSAS EUROPEAS F.I. -5,49 7,305818 10/02/2019
L.K. BOLSA UNIVERSAL F.I. 3,37 7,118087 10/02/2019
L.K. MERCADOS EMERGENTES F.I. -5,55 8,650695 10/02/2019
L.K. AVANT F.I. -2,19 7,322360 10/02/2019
L.K. BOLSA JAPON F.I. -11,39 6,703246 10/02/2019
L.K. BOLSA USA F.I. 0,92 10,306068 10/02/2019
L.K. SELEK BASE F.I. -2,39 6,877557 10/02/2019
L.K. SELEK PLUS F.I. -1,52 7,316520 10/02/2019
L.K. SELEK EXTRAPLUS F.I. -0,49 7,666515 10/02/2019
L.K. RENTA FIJA GARANTIZADO VII F.I.Sol Oo Color La Sliver 28 Gafas 5aehun Lente Azul Qgbae Hombres Oakley 9262 De Tienda BCodeWrx 1,82 6,622573 10/02/2019
L.K. RENTA FIJA GARANTIZADO XV F.I. -0,08 10,256584 10/02/2019
L.K. BOLSA GARANTIZADO XVIII F.I. 0,28 10,656840 10/02/2019
C.L. RENTA ASEGURADA IV F.I. -1,23 12,743270 10/02/2019253 Sol S De Gafas Jacobs 9za465e Marc Provide Authentic doexrCQBWE
C.L. BOLSA GARANTIZADO XVI F.I. -2,04 11,259256 10/02/2019
C.L. RENTA ASEGURADA V F.I. -0,95 11,547996 10/02/2019
L.K. RENTA FIJA GARANTIZADO XIII F.I. 0,4 11,931155 10/02/2019
L.K. BOLSA GARANTIZADO XIX F.I. -0,63 11,194035 10/02/2019
C.L. BOLSA GARANTIZADO XVII F.I. -1,42 6,073282 10/02/2019
L.K. AKTIBO IPAR F.I. -3,61 6,347849 10/02/2019
L.K. KONPROMISO F.I. -1,47 6,185587 10/02/2019
L.K. SELEK BALANCE F.I. -2,13 5,852433 10/02/2019
L.K. RENTA FIJA GARANTIZADO XVI F.I. -0,04 6,161163 10/02/2019
L.K. BOLSA GARANTIZADO XXII F.I. -0,48 6,130677 10/02/2019
L.K. BOLSA GARANTIZADO XXIII F.I. -0,14 6,093453 10/02/2019
L.K. EURIBOR GARANTIZADO F.I. 0,48 6,088829 10/02/2019
L.K. AKTIBO EKI F.I. -1,19 5,809651 10/02/2019
L.K. BOLSA GARANTIZADO XXIV, FI 1,39 6,084670 10/02/2019
L.K. RENTA FIJA GARANTIZADO XVII F.I. 2,01 6,120841 10/02/2019
L.K. FUTUR, F.I. -0,95 5,943165 10/02/2019
L.K .RENTA FIJA GARANTIZADO XVIII F.I. 0,97 6,058353 10/02/2019

Tu versión del navegador no es compatible. Es posible que algunas características no funcionen correctamente. Se recomienda usar un navegador más moderno.